Regional Weather Roundup
Issued by NWS

Home | Current Version | Previous Version | Text Only | Print | Product List | Glossary On
Versions: 1 2 3 4 5 6 7 8 9 10 11 12 13 14 15 16 17 18 19 20 21 22 23 24 25 26 27 28 29 30 31 32 33 34 35 36 37 38 39 40 41 42 43 44 45 46 47 48 49 50
000
ASUS44 KJAN 010210
RWRMS

MISSISSIPPI HOURLY WEATHER ROUNDUP
NATIONAL WEATHER SERVICE JACKSON MS
900 PM CDT MON AUG 31 2015

NOTE: "FAIR: INDICATES FEW OR NO CLOUDS BELOW 12,000 FEET WITH NO
SIGNIFICANT WEATHER AND/OR OBSTRUCTIONS TO VISIBILITY.

MSZ001>002-007>008-010>013-018>021-025>028-034>036-010300-
NORTHWEST MISSISSIPPI

CITY           SKY/WX    TMP DP  RH WIND       PRES   REMARKS
CLARKSDALE       N/A     81  73  78 E7        30.05R
CLEVELAND      FAIR      85  69  60 SE6       30.02R
GREENWOOD      PTCLDY    82  67  60 E9        30.03R
GREENVILLE     CLOUDY    79  71  76 CALM      30.01R
OLIVE BRANCH   CLEAR     79  72  78 CALM      30.07R
OXFORD         FAIR      75  66  73 SE6       30.09R
TUNICA         PTCLDY    77  70  78 E5        30.05R
$$

MSZ003>006-009-014>017-022>024-029>033-037>039-010300-
NORTHEAST MISSISSIPPI

CITY           SKY/WX    TMP DP  RH WIND       PRES   REMARKS
COLUMBUS AFB   CLEAR     74  69  86 CALM      30.06R
CORINTH        FAIR      73  70  88 CALM      30.07R
GOLDN TRIANGLE CLEAR     79  66  65 CALM      30.06R
STARKVILLE     FAIR      72  68  88 CALM      30.07R
TUPELO         PTCLDY    76  69  79 CALM      30.06R
$$

MSZ040-058-010300-
CENTRAL MISSISSIPPI

CITY           SKY/WX    TMP DP  RH WIND       PRES   REMARKS
JACKSON INTL   MOCLDY    84  65  52 E5        30.03R
JACKSON HAWKNS MOCLDY    85  65  51 CALM      30.03R
MERIDIAN KEY   CLEAR     77  73  87 CALM      30.05R
MERIDIAN NAS   PTCLDY    78  70  76 E6        30.06R
VICKSBURG      PTCLDY    74  67  78 CALM      30.02R
$$

MSZ059>079-010300-
SOUTH MISSISSIPPI

CITY           SKY/WX    TMP DP  RH WIND       PRES   REMARKS
BROOKHAVEN     FAIR      77  66  69 CALM      30.06R
HATTIESBURG    MOCLDY    83  67  58 S8        30.04R
MCCOMB         MOCLDY    80  71  74 NW5       30.03R
NATCHEZ        MOCLDY    77  70  78 CALM      30.04R
PINE BELT      CLEAR     77  64  65 CALM      30.05R
$$

MSZ080>082-010300-
COASTAL MISSISSIPPI

CITY           SKY/WX    TMP DP  RH WIND       PRES   REMARKS
BILOXI         CLEAR     80  70  73 SW6       30.04R
PASCAGOULA     CLEAR     74  71  91 CALM      30.04R
GULFPORT       CLEAR     79  70  74 CALM      30.03R
$$


USA.gov is the U.S. government's official web portal to all federal, state and local government web resources and services.